Location: Roland
(31.1349°N, 85.4372°W)
Time: 04:47:29
(UTC+00:00)

Courier 1B - Pass Details

Date: 28 April 2021
Orbit: 962 x 1209 km, 28.3° (Epoch: 07 May)

Event Time Altitude Azimuth Distance (km) Brightness Sun altitude
Rises 19:15:54 0° 274° (W) 3,790 10.9 62.2°
Reaches altitude 10° 19:18:47 10° 268° (W) 2,801 10.5 61.7°
Maximum altitude 19:25:07 43° 199° (SSW) 1,346 9.5 60.5°
Drops below altitude 10° 19:31:12 10° 129° (SE) 2,692 9.8 59.4°
Sets 19:33:56 0° 123° (ESE) 3,629 10.3 58.9°
